Flag for Norway Weather past 2 weeks in Hammerfest, Norway

Now
27 °F

Low level haze.


Feels Like: 16 °F
Forecast: 27 / 33 °F
Wind: 13 mph from South

Location: Hammerfest

Current Time: Mar 26, 2015 at 11:48:24 PM

Latest Report: Mar 26, 2015 at 10:50 PM


Visibility: N/A

Pressure: 29.95 "Hg

Humidity: 54%

Dew point: 12 °F

Location of HammerfestLocation

Historic Weather in Hammerfest — Graph

°F

Hammerfest temperature yesterday

Maximum temperature yesterday: 30 °F (at 6:50 PM)
Minimum temperature yesterday: 18 °F (at 12:02 AM)
Average temperature yesterday: 25 °F

Past Weeks' High & Low Weather Summary

 TemperatureHumidityPressure
High46 °F (Mar 15, 7:50 PM)100% (Mar 19, 11:50 AM)30.72 "Hg (Mar 19, 11:50 AM)
Low16 °F (Mar 24, 3:50 AM)39% (Mar 16, 4:50 PM)29.27 "Hg (Mar 22, 8:50 PM)
Average32 °F71%30.00 "Hg
* Reported Mar 11 10:50 PM — Mar 26 10:50 PM, Hammerfest, Weather by CustomWeather, © 2015

Note: Actual official high and low records may vary slightly from our data, if they occured in-between our weather recording intervals... More about our weather records

Advertising

Hammerfest weather history for previous 24 hours

 ConditionsComfort  
Time TempWeatherWind HumidityBarometerVisibility
10:50 PM
Thu, Mar 26
27 °FLow level haze.13 mph54%29.95 "HgN/A
9:50 PM27 °FLow level haze.10 mph54%29.95 "HgN/A
8:50 PM27 °FLow level haze.15 mph50%29.98 "HgN/A
7:50 PM28 °FLow level haze.17 mph43%29.98 "HgN/A
6:50 PM28 °FLow level haze.13 mph43%30.01 "HgN/A
5:50 PM28 °FLow level haze.13 mph47%30.04 "HgN/A
4:50 PM30 °FPassing clouds.8 mph55%30.04 "HgN/A
3:50 PM32 °FPassing clouds.6 mph60%30.07 "HgN/A
2:50 PM30 °FPassing clouds.10 mph69%30.09 "HgN/A
1:50 PM30 °FSunny.12 mph64%30.09 "Hg10 mi
12:50 PM34 °FSunny.1 mph56%30.12 "Hg10 mi
11:50 AM28 °FSunny.5 mph69%30.12 "Hg10 mi
10:50 AM27 °FSunny.6 mph69%30.15 "Hg10 mi
9:50 AM28 °FSunny.2 mph69%30.15 "Hg10 mi
8:50 AM25 °FSunny.3 mph69%30.12 "Hg10 mi
7:50 AM25 °FPassing clouds.3 mph74%30.12 "HgN/A
6:50 AM25 °FPassing clouds.3 mph80%30.12 "HgN/A
5:50 AM25 °FPassing clouds.2 mph80%30.12 "HgN/A
4:50 AM21 °FPassing clouds.1 mph74%30.09 "HgN/A
3:50 AM23 °FClear.2 mph74%30.09 "Hg10 mi
2:50 AM25 °FPassing clouds.2 mph69%30.09 "HgN/A
1:50 AM28 °FPassing clouds.8 mph74%30.07 "HgN/A
12:50 AM28 °FPassing clouds.6 mph74%30.04 "HgN/A
11:50 PM
Wed, Mar 25
30 °FPassing clouds.6 mph69%30.04 "HgN/A
Weather by CustomWeather, © 2015

See weather overviewHow to use our weather pages